星链-32417 (STARLINK-32417)

导读 | 星芒AI

STARLINK-32417 是 SpaceX Starlink 卫星互联网项目中的一颗低轨卫星,属于第6批部署的星链卫星之一。该卫星于2022年发射,运行在约550公里高度的近地轨道,旨在为全球用户提供高速互联网服务。它采用先进的相控阵天线和激光通信技术,支持低延迟、高带宽的网络连接。作为星链星座的一部分,STARLINK-32417 有助于扩大覆盖范围,提升服务稳定性,并推动偏远地区的网络普及。

基本信息
目录编号:
61673
目录名称:
STARLINK-32417
国际标识:
2024-193N
轨道中心:
EARTH
卫星名称:
星链-32417
卫星全名:
星链-32417 (STARLINK-32417)
卫星状态:
在轨 (已飞行374 天)
发射日期:
2024-10-26 UTC
国别 :
美国 (US)
星等 :
--
轨道信息
数据来源 国际轨道数据
星历时间: 2025-11-04T01:28:27+0800
12小时前
查看轨道信息
半长轴: 6853.373km
偏心率: 0.0001248
轨道倾角: 53.162°
近地点辐角 111.299°
升交点赤经 315.923°
平近点角 248.815°
近地点: 474.382km
远地点: 476.094km
周期: 94.106分钟
每日圈数: 15.301932
详细信息
固有亮度:
5
最大亮度:
2.5
卫星平台:
Starlink V1.0
覆盖范围:
全球
运营商:
太空探索技术公司
运营商所在国:
美国
制造商(研发单位):
太空探索技术公司
制造商所在国:
美国
使用方式:
暂无
卫星简介
Starlink 计划是 SpaceX 推出的全球卫星互联网项目,通过发射低轨道卫星,为全球尤其是偏远地区提供高速、低延迟的互联网服务。自 2019 年起,Starlink 已部署数千颗卫星,旨在缩小全球数字鸿沟,推动互联网普及。该项目还为军事、航空等行业提供通信支持,带来广泛经济效益。
2D轨道图
3D轨道图
轨道高度分析图
轨道倾角分析图
轨道综合分析图
查看轨道综合分析图